Location: Unspecified
(17.6330°N, 0.0000°E)
Time: 15:08:22
(UTC+00:00)

Tiros 1 despin weight - Pass Details

Date: 09 August 2020
Orbit: 593 x 642 km, 48.2° (Epoch: 23 September)

Event Time Altitude Azimuth Distance (km) Brightness Sun altitude
Exits shadow 04:37:07 11° 196° (SSW) 1,897 ? -15.3°
Maximum altitude 04:41:06 38° 129° (SE) 943 ? -14.4°
Drops below altitude 10° 04:45:18 10° 61° (ENE) 1,967 ? -13.4°
Sets 04:47:42 0° 53° (NE) 2,863 ? -12.9°
